Regional Weather Roundup
Issued by NWS Upton, NY

Home | Current Version | Previous Version | Text Only | Print | Product List | Glossary On
Versions: 1 2 3 4 5 6 7 8 9 10 11 12 13 14 15 16 17 18 19 20 21 22 23 24 25 26 27
000
ASUS41 KOKX 260508
RWROKX

REGIONAL WEATHER ROUNDUP
NATIONAL WEATHER SERVICE NEW YORK NY
100 AM EDT SUN MAR 26 2017

NOTE: "FAIR" INDICATES FEW OR NO CLOUDS BELOW 12,000 FEET WITH NO
SIGNIFICANT WEATHER AND/OR OBSTRUCTIONS TO VISIBILITY.

NYZ071-072-176-178-NJZ106-104-260600-
NEW YORK CITY METRO AREA

CITY           SKY/WX    TMP DP  RH WIND       PRES   REMARKS
Central Park   CLOUDY    42  34  73 E14G22    30.42S
Wall St Helipt CLOUDY    43  34  70 NE14      30.40F
LaGuardia APRT CLOUDY    44  34  67 E16       30.40S
Kennedy INTL   CLOUDY    43  38  82 NE9       30.41R
Breezy Point     N/A     41 N/A N/A E9          N/A
Newark/Liberty CLOUDY    44  34  67 E15       30.39S
Teterboro      CLOUDY    43  38  82 NE6       30.40R
$$

NYZ177-179-078>081-260600-
LONG ISLAND NEW YORK

CITY           SKY/WX    TMP DP  RH WIND       PRES   REMARKS
Jones Beach      N/A     41 N/A N/A E9          N/A
Matinecock PT    N/A     39 N/A N/A E15         N/A  WCI  31
Farmingdale    CLOUDY    41  36  82 NE9       30.41R
MacArthur/ISP  CLOUDY    40  37  89 NE12      30.40S WCI  33
Shirley        CLOUDY    41  38  89 VRB3      30.42R
Westhampton    CLOUDY    41  35  79 NE9       30.43R
East Hampton     N/A     38  34  84 NE3       30.42R
Montauk          N/A     39  35  86 NE6       30.43R WCI  35
$$

NYZ052-065-067-260600-
HUDSON VALLEY

CITY           SKY/WX    TMP DP  RH WIND       PRES   REMARKS
White Plains   CLOUDY    40  35  83 E6        30.39R
Newburgh       CLOUDY    34  34 100 E7        30.42S WCI  28
Montgomery     CLOUDY    36  32  85 E5        30.41R WCI  32
Poughkeepsie   CLOUDY    35  32  88 NE6       30.42S WCI  30
Albany         PTCLDY    31  22  69 N7        30.46F WCI  24
$$

NJZ001-105-106-008-010-013-015-019>022-104-260600-
NEW JERSEY

CITY           SKY/WX    TMP DP  RH WIND       PRES   REMARKS
Newark/Liberty CLOUDY    44  34  67 E15       30.39S
Teterboro      CLOUDY    43  38  82 NE6       30.40R
Caldwell       CLOUDY    41  37  86 NE8       30.40S
Somerville     CLOUDY    44  38  79 NE6       30.37R
Linden         CLOUDY    44  36  72 E10       30.40R
Sussex         CLOUDY    36  33  89 NE9       30.40R WCI  29
Andover          N/A     36  33  89 VRB7      30.38S WCI  30
Trenton        CLOUDY    44  39  82 E13       30.36S
Millville      CLOUDY    46  41  82 E14       30.31R
Atlantic City  CLOUDY    45  38  76 NE14G23   30.32S
Wrightstown    CLOUDY    42  39  87 NE8       30.34S
Toms River     CLOUDY    42  40  92 E8        30.37F
Belmar         CLOUDY    41  38  89 E10G20    30.39R
$$

PAZ047>061-062-071-260600-
EASTERN PENNSYLVANIA

CITY           SKY/WX    TMP DP  RH WIND       PRES   REMARKS
Philadelphia   CLOUDY    45  39  79 E12       30.35S
Allentown      CLOUDY    43  35  73 NE10      30.36S
Scranton       CLOUDY    42  39  89 E5        30.32S
$$

CTZ002-004>006-009-010-012-RIZ004-006-007-MAZ004-011-015-260600-
SOUTHERN NEW ENGLAND
 IN CT

CITY           SKY/WX    TMP DP  RH WIND       PRES   REMARKS
Bradley INTL   PTCLDY    32  31  96 NE6       30.43R WCI  26
Hartford       CLOUDY    31  31 100 CALM      30.44R FOG
Danbury        CLOUDY    39  36  89 E9        30.41S WCI  33
Wtrbury/Oxford CLOUDY    36  28  75 NE7       30.40S WCI  30
Bridgeport     CLOUDY    39  33  79 NE8       30.42S WCI  33
Meriden        CLOUDY    36  32  85 N3        30.43R
New Haven      CLOUDY    34  32  92 N5        30.43R WCI  30
Chester        NOT AVBL
Groton         CLEAR     35  32  88 CALM      30.42R
Wilimantic     CLEAR     32  30  92 CALM      30.43S FOG

 IN RI

CITY           SKY/WX    TMP DP  RH WIND       PRES   REMARKS
Providence     CLOUDY    34  30  85 N7        30.43S WCI  28
Block Island   PTCLDY    37  35  92 NE7       30.42S WCI  32
Westerly       CLEAR     34  32  92 CALM      30.42S
 IN MA

CITY           SKY/WX    TMP DP  RH WIND       PRES   REMARKS
Boston         CLOUDY    34  29  82 N9        30.43S WCI  27
Worcester      CLEAR     31  24  75 N9        30.39R WCI  23
Westfield      CLEAR     27  27 100 N6        30.43S FOG     WCI  20
Provincetown   CLEAR     37  35  92 N7        30.43R WCI  32
Nantucket      CLEAR     34  32  92 N7        30.40R WCI  28
$$

ANZ330-335-338-340-345-350-353-355-260600-
COASTAL MARINE OBSERVATIONS


STATION/POSITION TIME  SKY/WX   TEMP    WIND        PRES    VSBY  WAVE
                                AIR SEA DIR/SP/G                  HT/PER
                 (UTC)          (F)     (DEG/KT/KT) (MB)    (MI)  (FT/S)
NY HARB ENTRANCE 0350            42 42   80/ 14/ 16 1028.9          3/ 7
20 S FIRE ISLAND 0450            41 40   60/ 14/ 16 1028.8          4/ 8
GREAT SOUTH BAY  NOT AVBL
23 SSW MONTAUK P 0350            40 43              1029.7          4/ 8
15 E BARNEGAT LI 0430               42                N/A           4/ 5
HUDSON CANYON    0450            43 45   60/ 19/ 23 1027.5          5/ 7
KINGS POINT      0442            41 39              1029.6
EXECUTION ROCKS  NOT AVBL
CENTRAL LI SOUND 0430            39      40/ 10/ 12   N/A           0
EASTERN LI SOUND NOT AVBL
ROBBINS REEF     0442            43      50/ 15/ 17 1029.3
$$


>>>>>>>>>>>>>>>>>>>>>>>>>>>> KEY <<<<<<<<<<<<<<<<<<<<<<<<<<<
>                                                          <
>     SKY/WX - Sky Condition/Present Weather               <
>     TMP    - Temperature in Fahrenheit                   <
>     DP     - Dew Point in Fahrenheit                     <
>     RH     - Relative Humidity in Percent                <
>     WIND   - Direction (from) and Speed in MPH           <
>     PRES   - Mean Sea Level Pressure (inches of Hg)      <
>     WCI    - Wind Chill Index                            <
>     VSB    - VISIBILITY IN MILES                         <
>     HX     - HEAT INDEX                                  <
>     TC     - TEMPERATURE IN CELSIUS                      <
>     VRB    - VARIABLE WIND DIRECTION                     <
>                                                          <
>>>>>>>>>>>>>>>>>>>>>>>>>>>> KEY <<<<<<<<<<<<<<<<<<<<<<<<<<<




USA.gov is the U.S. government's official web portal to all federal, state and local government web resources and services.